This demonstration page uses our WeatherBlox Daily Observations layout. Learn more.

Left ArrowRight Arrow

30.00354, -91.81873

Hourly Observations for December 3, 2022

Temp ( °F °C ) Dew Point ( °F °C ) Humidity (%) Winds ( mph kmh ) Pressure ( in mb ) Visibility ( mi km ) Precip ( " mm )
12:53 am 00:53 Cloudy 69 20.6 67 19.4 93 93 SSE 5 7 30.22 1023 8 13 0.00 0.00
1:53 am 01:53 Cloudy with Mist and Fog 70 21.1 67 19.4 90 90 SSE 7 11 30.21 1023 6 10 0.00 0.00
2:16 am 02:16 Cloudy with Mist and Fog 70 21.1 68 20 93 93 S 10 17 30.21 1023 5 8 0.00 0.00
2:53 am 02:53 Cloudy with Mist and Fog 70 21.1 68 20 93 93 S 8 13 30.22 1023 5 8 0.00 0.00
3:26 am 03:26 Cloudy with Mist and Fog 70 21.1 68 20 93 93 S 5 7 30.24 1024 3 4 0.00 0.00
3:44 am 03:44 Cloudy with Mist and Fog 70 21.1 68 20 93 93 Calm 30.25 1024 1 2 0.00 0.00
3:53 am 03:53 Cloudy with Mist and Fog 70 21.1 68 20 93 93 S 5 7 30.25 1024 1 1 0.00 0.00
4:00 am 04:00 Cloudy with Mist and Fog 69 20.6 67 19.4 93 93 S 6 9 30.25 1024 1 2 0.00 0.00
4:12 am 04:12 Mostly Clear with Fog 69 20.6 67 19.4 93 93 S 5 7 30.25 1024 1 1 0.00 0.00
4:39 am 04:39 Cloudy with Mist and Fog 69 20.6 67 19.4 93 93 S 7 11 30.25 1024 2 3 0.00 0.00
4:53 am 04:53 Cloudy with Mist and Fog 69 20.6 67 19.4 93 93 S 7 11 30.24 1024 2 2 0.00 0.00
5:11 am 05:11 Mostly Clear with Fog 69 20.6 67 19.4 93 93 S 6 9 30.25 1024 1 1 0.00 0.00
5:23 am 05:23 Mostly Clear with Fog 69 20.6 67 19.4 93 93 S 5 7 30.25 1024 0 0 0.00 0.00
5:53 am 05:53 Mostly Clear with Fog 68 20 67 19.4 96 96 SSE 5 7 30.26 1025 0 0 0.00 0.00
6:53 am 06:53 Partly Cloudy with Fog 68 20 66 18.9 93 93 S 5 7 30.28 1025 0 0 0.00 0.00
7:53 am 07:53 Partly Cloudy with Fog 69 20.6 67 19.4 93 93 SSW 5 7 30.29 1026 0 0 0.00 0.00
8:32 am 08:32 Partly Cloudy with Fog 70 21.1 68 20 93 93 SSW 5 7 30.31 1026 0 0 0.00 0.00
8:53 am 08:53 Partly Cloudy with Fog 70 21.1 69 20.6 97 97 SSW 5 7 30.30 1026 0 0 0.00 0.00
9:30 am 09:30 Partly Cloudy with Fog 71 21.7 69 20.6 93 93 WSW 6 9 30.32 1027 1 1 0.00 0.00
9:41 am 09:41 Cloudy with Mist and Fog 71 21.7 69 20.6 93 93 WSW 7 11 30.33 1027 2 3 0.00 0.00
9:48 am 09:48 Cloudy with Mist and Fog 72 22 70 21 94 94 WSW 8 13 30.33 1027 3 4 0.00 0.00
9:53 am 09:53 Cloudy with Mist and Fog 71 21.7 69 20.6 93 93 WSW 7 11 30.32 1027 3 4 0.00 0.00
10:03 am 10:03 Cloudy with Mist and Fog 71 21.7 69 20.6 93 93 SW 7 11 30.33 1027 6 10 0.00 0.00
10:30 am 10:30 Cloudy 73 22.8 70 21.1 90 90 SW 7 11 30.32 1027 10 16 0.00 0.00
10:53 am 10:53 Mostly Cloudy 76 24.4 70 21.1 82 82 WSW 8 13 30.31 1027 10 16 0.00 0.00
11:15 am 11:15 Mostly Cloudy 78 25.6 71 21.7 79 79 W 5 7 30.31 1026 10 16 0.00 0.00
11:26 am 11:26 Cloudy with Heavy Rain 76 24.4 70 21.1 82 82 W 9 15 30.31 1026 2 3 0.07 1.78
11:35 am 11:35 Cloudy with Light Rain 75 23.9 71 21.7 88 88 WNW 7 11 30.30 1026 3 5 0.07 1.78
11:44 am 11:44 Cloudy 75 23.9 71 21.7 88 88 NW 7 11 30.30 1026 10 16 0.07 1.78
11:53 am 11:53 Cloudy 76 24.4 72 22.2 88 88 NW 9 15 30.29 1026 10 16 0.07 1.78
12:11 pm 12:11 Cloudy 76 24.4 70 21.1 82 82 WNW 6 9 30.28 1025 10 16 0.00 0.00
12:44 pm 12:44 Mostly Cloudy 76 24.4 69 20.6 79 79 NNW 9 15 30.28 1025 10 16 0.00 0.00
12:53 pm 12:53 Cloudy 77 25 69 20.6 77 77 NW 9 15 30.27 1025 10 16 0.00 0.00
1:35 pm 13:35 Partly Cloudy 79 26.1 69 20.6 72 72 WNW 8 13 30.25 1024 10 16 0.00 0.00
1:53 pm 13:53 Mostly Sunny 81 27.2 68 20 65 65 NNW 7 11 30.24 1024 10 16 0.00 0.00
2:53 pm 14:53 Partly Cloudy 79 26.1 67 19.4 67 67 NW 7 11 30.24 1024 10 16 0.00 0.00
3:53 pm 15:53 Cloudy 78 25.6 68 20 71 71 NNW 3 6 30.24 1024 10 16 0.00 0.00
4:53 pm 16:53 Sunny 76 24.4 67 19.4 74 74 ENE 3 6 30.24 1024 10 16 0.00 0.00
5:53 pm 17:53 Clear 71 21.7 66 18.9 84 84 E 3 6 30.26 1025 10 16 0.00 0.00
6:53 pm 18:53 Clear with Mist and Fog 68 20 66 18.9 93 93 Calm 30.27 1025 6 10 0.00 0.00
7:12 pm 19:12 Clear with Mist and Fog 67 19.4 65 18.3 93 93 Calm 30.27 1025 2 2 0.00 0.00
7:20 pm 19:20 Clear 67 19.4 65 18.3 93 93 Calm 30.28 1025 10 16 0.00 0.00
7:53 pm 19:53 Clear 66 18.9 63 17.2 90 90 Calm 30.28 1025 10 16 0.00 0.00
7:59 pm 19:59 Clear with Mist and Fog 65 18.3 63 17.2 93 93 Calm 30.28 1025 1 1 0.00 0.00
8:09 pm 20:09 Clear 65 18.3 63 17.2 93 93 Calm 30.28 1025 10 16 0.00 0.00
8:53 pm 20:53 Mostly Clear 65 18.3 64 17.8 97 97 Calm 30.28 1025 10 16 0.00 0.00
9:00 pm 21:00 Mostly Clear with Fog 64 17.8 63 17.2 96 96 Calm 30.28 1025 0 0 0.00 0.00
9:45 pm 21:45 Mostly Clear with Fog 63 17.2 61 16.1 93 93 Calm 30.28 1025 0 0 0.00 0.00
9:53 pm 21:53 Mostly Clear with Fog 63 17.2 61 16.1 93 93 Calm 30.27 1025 0 0 0.00 0.00
10:51 pm 22:51 Mostly Clear with Fog 66 19 64 18 94 94 N 6 9 30.28 1025 1 1 0.00 0.00
10:53 pm 22:53 Mostly Clear with Fog 67 19.4 65 18.3 93 93 N 7 11 30.27 1025 1 1 0.00 0.00
10:58 pm 22:58 Cloudy with Mist and Fog 67 19.4 65 18.3 93 93 N 5 7 30.28 1025 2 3 0.00 0.00
11:04 pm 23:04 Mostly Cloudy with Mist and Fog 66 18.9 65 18.3 96 96 N 3 6 30.27 1025 3 5 0.00 0.00
11:53 pm 23:53 Mostly Cloudy 66 18.9 64 17.8 93 93 NNE 7 11 30.27 1025 8 13 0.00 0.00

Powered by AerisWeather